SCO16AB EGSS-EGPH

Flight info

Callsign SCO16AB
Flight time 1h 3m
Altitude 32000
Route UTAVA Q75 BUZAD T420 TNT UN57 POL UN601 RIBEL DCT INPIP
Aircraft A320/M-SDE3FGHIRWY/LB1

Departure

Time 2026-04-24 11:38
Airport London Stansted Airport (EGSS)

Arrival

Time 2026-04-24 12:41
Airport Edinburgh Airport (EGPH)
Time Latitude Longitude Altitude Speed Heading
2026-04-24 11:14 51.89261 0.25572 352 ft 0 kts 197°
2026-04-24 11:28 51.89267 0.25575 354 ft 4 kts 199°
2026-04-24 11:29 51.89290 0.25594 355 ft 4 kts 226°
2026-04-24 11:29 51.89301 0.25626 356 ft 4 kts 283°
2026-04-24 11:29 51.89298 0.25642 359 ft 0 kts 314°
2026-04-24 11:32 51.89298 0.25640 359 ft 2 kts 314°
2026-04-24 11:33 51.89329 0.25589 359 ft 7 kts 313°
2026-04-24 11:33 51.89317 0.25475 355 ft 21 kts 211°
2026-04-24 11:33 51.89197 0.25312 355 ft 23 kts 223°
2026-04-24 11:33 51.89077 0.25129 349 ft 25 kts 223°
2026-04-24 11:34 51.88976 0.24945 352 ft 15 kts 269°
2026-04-24 11:34 51.89027 0.24823 351 ft 14 kts 294°
2026-04-24 11:34 51.88987 0.24696 349 ft 13 kts 222°
2026-04-24 11:34 51.88883 0.24540 354 ft 31 kts 222°
2026-04-24 11:35 51.88718 0.24293 353 ft 33 kts 223°
2026-04-24 11:35 51.88544 0.24032 357 ft 35 kts 223°
2026-04-24 11:35 51.88364 0.23760 349 ft 36 kts 223°
2026-04-24 11:35 51.88175 0.23478 349 ft 37 kts 223°
2026-04-24 11:36 51.87981 0.23187 349 ft 38 kts 223°
2026-04-24 11:36 51.87824 0.22951 349 ft 19 kts 225°
2026-04-24 11:36 51.87846 0.22836 348 ft 9 kts 313°
2026-04-24 11:36 51.87900 0.22742 346 ft 14 kts 313°
2026-04-24 11:37 51.87971 0.22687 342 ft 12 kts 33°
2026-04-24 11:37 51.88080 0.22850 339 ft 48 kts 43°
2026-04-24 11:37 51.88515 0.23502 347 ft 119 kts 43°
2026-04-24 11:37 51.89238 0.24579 577 ft 152 kts 45°
2026-04-24 11:38 51.89771 0.25396 996 ft 160 kts 45°
2026-04-24 11:38 51.90633 0.26647 1637 ft 176 kts 42°
2026-04-24 11:38 51.91621 0.27992 2177 ft 196 kts 42°
2026-04-24 11:38 51.92766 0.29444 2720 ft 222 kts 30°
2026-04-24 11:39 51.94369 0.29890 3274 ft 253 kts 352°
2026-04-24 11:39 51.95968 0.28564 4138 ft 269 kts 315°
2026-04-24 11:39 51.96872 0.25902 5145 ft 276 kts 285°
2026-04-24 11:39 51.97295 0.22860 6236 ft 278 kts 281°
2026-04-24 11:40 51.97627 0.19739 7228 ft 284 kts 279°
2026-04-24 11:40 51.97931 0.16595 8192 ft 287 kts 279°
2026-04-24 11:40 51.98248 0.13324 9168 ft 293 kts 279°
2026-04-24 11:40 51.98575 0.10083 10106 ft 297 kts 279°
2026-04-24 11:41 51.98879 0.06723 10769 ft 313 kts 274°
2026-04-24 11:41 51.98785 0.03065 11202 ft 333 kts 261°
2026-04-24 11:41 51.98515 -0.00704 11943 ft 340 kts 269°
2026-04-24 11:41 51.98857 -0.04511 12766 ft 346 kts 288°
2026-04-24 11:42 52.00025 -0.07943 13591 ft 352 kts 310°
2026-04-24 11:42 52.01795 -0.10699 14424 ft 355 kts 318°
2026-04-24 11:42 52.03644 -0.13377 15206 ft 357 kts 317°
2026-04-24 11:42 52.05509 -0.16077 15959 ft 361 kts 317°
2026-04-24 11:43 52.07393 -0.18814 16696 ft 364 kts 317°
2026-04-24 11:43 52.09286 -0.21577 17446 ft 368 kts 316°
2026-04-24 11:43 52.11196 -0.24378 18182 ft 371 kts 316°
2026-04-24 11:43 52.13121 -0.27209 18865 ft 375 kts 316°
2026-04-24 11:44 52.15069 -0.30077 19497 ft 379 kts 316°
2026-04-24 11:44 52.17032 -0.32975 20131 ft 383 kts 316°
2026-04-24 11:44 52.19011 -0.35898 20775 ft 386 kts 316°
2026-04-24 11:44 52.21009 -0.38849 21400 ft 390 kts 316°
2026-04-24 11:45 52.23024 -0.41831 22020 ft 393 kts 316°
2026-04-24 11:45 52.25057 -0.44840 22648 ft 397 kts 316°
2026-04-24 11:45 52.27111 -0.47880 23272 ft 400 kts 316°
2026-04-24 11:45 52.29182 -0.50950 23887 ft 404 kts 316°
2026-04-24 11:46 52.31269 -0.54051 24410 ft 407 kts 316°
2026-04-24 11:46 52.33368 -0.57175 24943 ft 409 kts 316°
2026-04-24 11:46 52.35474 -0.60312 25483 ft 411 kts 316°
2026-04-24 11:46 52.37588 -0.63466 26007 ft 413 kts 316°
2026-04-24 11:47 52.39715 -0.66640 26523 ft 414 kts 315°
2026-04-24 11:47 52.41851 -0.69828 27027 ft 416 kts 315°
2026-04-24 11:47 52.43990 -0.73028 27527 ft 418 kts 315°
2026-04-24 11:47 52.46140 -0.76250 28005 ft 419 kts 315°
2026-04-24 11:48 52.48294 -0.79488 28480 ft 421 kts 315°
2026-04-24 11:48 52.50454 -0.82748 28947 ft 423 kts 314°
2026-04-24 11:48 52.52622 -0.86026 29416 ft 425 kts 315°
2026-04-24 11:48 52.54777 -0.89291 29748 ft 429 kts 315°
2026-04-24 11:49 52.57012 -0.92676 30131 ft 432 kts 315°
2026-04-24 11:49 52.59230 -0.96032 30483 ft 435 kts 315°
2026-04-24 11:49 52.61432 -0.99362 30810 ft 437 kts 315°
2026-04-24 11:49 52.63670 -1.02747 31176 ft 437 kts 315°
2026-04-24 11:50 52.65941 -1.06185 31573 ft 437 kts 315°
2026-04-24 11:50 52.68180 -1.09581 31899 ft 438 kts 315°
2026-04-24 11:50 52.70420 -1.12989 32225 ft 438 kts 315°
2026-04-24 11:50 52.72642 -1.16376 32294 ft 429 kts 315°
2026-04-24 11:51 52.74758 -1.19606 32383 ft 411 kts 314°
2026-04-24 11:51 52.76821 -1.22763 32394 ft 402 kts 315°
2026-04-24 11:51 52.80917 -1.29067 32380 ft 402 kts 315°
2026-04-24 11:52 52.85011 -1.35385 32382 ft 403 kts 315°
2026-04-24 11:52 52.89135 -1.41752 32381 ft 402 kts 315°
2026-04-24 11:53 52.93196 -1.48034 32378 ft 402 kts 315°
2026-04-24 11:53 52.97282 -1.54369 32382 ft 402 kts 315°
2026-04-24 11:54 53.01354 -1.60706 32389 ft 401 kts 316°
2026-04-24 11:54 53.05638 -1.66609 32378 ft 402 kts 328°
2026-04-24 11:55 53.10764 -1.70317 32370 ft 403 kts 339°
2026-04-24 11:55 53.16018 -1.73568 32356 ft 403 kts 338°
2026-04-24 11:56 53.21272 -1.76838 32355 ft 403 kts 339°
2026-04-24 11:56 53.26516 -1.80106 32354 ft 403 kts 339°
2026-04-24 11:57 53.31763 -1.83381 32353 ft 403 kts 339°
2026-04-24 11:57 53.37019 -1.86667 32343 ft 402 kts 339°
2026-04-24 11:58 53.42262 -1.89962 32342 ft 402 kts 339°
2026-04-24 11:58 53.47504 -1.93258 32340 ft 402 kts 339°
2026-04-24 11:59 53.52745 -1.96572 32340 ft 402 kts 339°
2026-04-24 11:59 53.57982 -1.99894 32337 ft 402 kts 339°
2026-04-24 12:00 53.63219 -2.03217 32334 ft 402 kts 339°
2026-04-24 12:00 53.68454 -2.06547 32335 ft 402 kts 339°
2026-04-24 12:01 53.73686 -2.09881 32341 ft 401 kts 340°
2026-04-24 12:01 53.78872 -2.13294 32361 ft 399 kts 339°
2026-04-24 12:02 53.83966 -2.16807 32360 ft 397 kts 338°
2026-04-24 12:02 53.89074 -2.20348 32356 ft 396 kts 339°
2026-04-24 12:03 53.94176 -2.23859 32349 ft 395 kts 339°
2026-04-24 12:03 53.99272 -2.27354 32333 ft 395 kts 339°
2026-04-24 12:04 54.04363 -2.30855 32340 ft 394 kts 339°
2026-04-24 12:04 54.09439 -2.34365 32338 ft 394 kts 339°
2026-04-24 12:05 54.14511 -2.37880 32332 ft 393 kts 339°
2026-04-24 12:05 54.19582 -2.41405 32335 ft 393 kts 339°
2026-04-24 12:06 54.24647 -2.44917 32326 ft 393 kts 340°
2026-04-24 12:06 54.29706 -2.48453 32336 ft 393 kts 339°
2026-04-24 12:07 54.34759 -2.51994 32333 ft 392 kts 340°
2026-04-24 12:07 54.39807 -2.55541 32333 ft 392 kts 339°
2026-04-24 12:08 54.44858 -2.59089 32343 ft 392 kts 339°
2026-04-24 12:08 54.49914 -2.62652 32326 ft 393 kts 340°
2026-04-24 12:09 54.52430 -2.64436 31831 ft 390 kts 340°
2026-04-24 12:09 54.54925 -2.66212 31370 ft 387 kts 340°
2026-04-24 12:09 54.57406 -2.67979 30896 ft 384 kts 340°
2026-04-24 12:09 54.59862 -2.69729 30430 ft 381 kts 340°
2026-04-24 12:10 54.62299 -2.71463 29955 ft 377 kts 340°
2026-04-24 12:10 54.64715 -2.73186 29447 ft 374 kts 340°
2026-04-24 12:10 54.67109 -2.74892 28947 ft 371 kts 340°
2026-04-24 12:11 54.71891 -2.78295 27634 ft 381 kts 340°
2026-04-24 12:11 54.74407 -2.80076 27416 ft 398 kts 340°
2026-04-24 12:11 54.76994 -2.81916 27227 ft 403 kts 339°
2026-04-24 12:11 54.79587 -2.83772 27047 ft 404 kts 339°
2026-04-24 12:12 54.82188 -2.85646 26865 ft 404 kts 339°
2026-04-24 12:12 54.84777 -2.87521 26688 ft 404 kts 339°
2026-04-24 12:12 54.87369 -2.89399 26508 ft 403 kts 339°
2026-04-24 12:12 54.89929 -2.91364 26127 ft 402 kts 337°
2026-04-24 12:13 54.92456 -2.93460 25644 ft 405 kts 335°
2026-04-24 12:13 54.94997 -2.95660 25131 ft 409 kts 335°
2026-04-24 12:13 54.97536 -2.97890 24623 ft 409 kts 334°
2026-04-24 12:13 55.00069 -3.00110 24128 ft 407 kts 334°
2026-04-24 12:14 55.02597 -3.02310 23590 ft 405 kts 334°
2026-04-24 12:14 55.05114 -3.04485 23013 ft 402 kts 334°
2026-04-24 12:14 55.07610 -3.06632 22453 ft 399 kts 334°
2026-04-24 12:14 55.10091 -3.08760 21899 ft 396 kts 334°
2026-04-24 12:15 55.12559 -3.10872 21354 ft 393 kts 334°
2026-04-24 12:15 55.15005 -3.12966 20821 ft 390 kts 334°
2026-04-24 12:15 55.17435 -3.15049 20297 ft 387 kts 334°
2026-04-24 12:15 55.19838 -3.17113 19782 ft 384 kts 334°
2026-04-24 12:16 55.22229 -3.19173 19276 ft 381 kts 334°
2026-04-24 12:16 55.24656 -3.21267 18771 ft 396 kts 334°
2026-04-24 12:16 55.27144 -3.23421 18226 ft 400 kts 334°
2026-04-24 12:16 55.29631 -3.25578 17670 ft 398 kts 334°
2026-04-24 12:17 55.32103 -3.27728 17118 ft 395 kts 334°
2026-04-24 12:17 55.34526 -3.29839 16583 ft 392 kts 333°
2026-04-24 12:17 55.36947 -3.31949 16058 ft 389 kts 333°
2026-04-24 12:17 55.39357 -3.34046 15530 ft 384 kts 333°
2026-04-24 12:18 55.41709 -3.36094 15023 ft 380 kts 333°
2026-04-24 12:18 55.44063 -3.38153 14519 ft 377 kts 333°
2026-04-24 12:18 55.46406 -3.40206 14012 ft 374 kts 333°
2026-04-24 12:18 55.48726 -3.42242 13452 ft 371 kts 333°
2026-04-24 12:19 55.51032 -3.44266 12825 ft 370 kts 333°
2026-04-24 12:19 55.53333 -3.46288 12085 ft 369 kts 333°
2026-04-24 12:19 55.55632 -3.48312 11362 ft 368 kts 333°
2026-04-24 12:19 55.57916 -3.50321 10683 ft 365 kts 333°
2026-04-24 12:20 55.60175 -3.52308 10071 ft 360 kts 332°
2026-04-24 12:20 55.62400 -3.54270 9428 ft 355 kts 332°
2026-04-24 12:20 55.64551 -3.56281 8938 ft 345 kts 329°
2026-04-24 12:20 55.66543 -3.58521 8451 ft 331 kts 322°
2026-04-24 12:21 55.68225 -3.61101 7982 ft 309 kts 315°
2026-04-24 12:21 55.69679 -3.63747 7513 ft 291 kts 313°
2026-04-24 12:21 55.71076 -3.66225 7053 ft 277 kts 315°
2026-04-24 12:21 55.72461 -3.68503 6586 ft 265 kts 317°
2026-04-24 12:22 55.73825 -3.70616 6103 ft 256 kts 319°
2026-04-24 12:22 55.75167 -3.72621 5623 ft 249 kts 319°
2026-04-24 12:22 55.76433 -3.74651 5149 ft 241 kts 315°
2026-04-24 12:22 55.77689 -3.76510 4824 ft 229 kts 331°
2026-04-24 12:23 55.79223 -3.77269 4753 ft 234 kts 357°
2026-04-24 12:23 55.80287 -3.77061 4694 ft 235 kts 15°
2026-04-24 12:23 55.81713 -3.75662 4616 ft 236 kts 43°
2026-04-24 12:23 55.82670 -3.73334 4514 ft 232 kts 58°
2026-04-24 12:24 55.83500 -3.70906 4261 ft 228 kts 58°
2026-04-24 12:24 55.84323 -3.68509 3969 ft 226 kts 58°
2026-04-24 12:24 55.85136 -3.66142 3678 ft 223 kts 58°
2026-04-24 12:24 55.85938 -3.63807 3382 ft 220 kts 58°
2026-04-24 12:25 55.86735 -3.61483 3092 ft 220 kts 58°
2026-04-24 12:25 55.87532 -3.59155 2802 ft 221 kts 58°
2026-04-24 12:25 55.88340 -3.56794 2484 ft 224 kts 58°
2026-04-24 12:25 55.89141 -3.54452 2194 ft 217 kts 58°
2026-04-24 12:26 55.89885 -3.52272 1916 ft 194 kts 58°
2026-04-24 12:26 55.90552 -3.50319 1650 ft 175 kts 58°
2026-04-24 12:26 55.91162 -3.48530 1425 ft 162 kts 58°
2026-04-24 12:26 55.91721 -3.46892 1210 ft 149 kts 58°
2026-04-24 12:27 55.92252 -3.45375 995 ft 138 kts 57°
2026-04-24 12:27 55.92751 -3.43961 816 ft 132 kts 58°
2026-04-24 12:27 55.93213 -3.42563 667 ft 130 kts 59°
2026-04-24 12:27 55.93671 -3.41159 475 ft 134 kts 58°
2026-04-24 12:28 55.94157 -3.39725 304 ft 136 kts 57°
2026-04-24 12:28 55.94646 -3.38295 138 ft 135 kts 57°
2026-04-24 12:28 55.95100 -3.36939 199 ft 132 kts 59°
2026-04-24 12:28 55.95641 -3.35387 759 ft 161 kts 56°
2026-04-24 12:29 55.96323 -3.33590 1432 ft 192 kts 55°
2026-04-24 12:29 55.97153 -3.31467 1997 ft 219 kts 56°
2026-04-24 12:29 55.97979 -3.29219 2835 ft 216 kts 56°
2026-04-24 12:29 55.98799 -3.26989 2979 ft 213 kts 50°
2026-04-24 12:30 55.99833 -3.25119 3008 ft 211 kts 40°
2026-04-24 12:30 56.01084 -3.23855 3013 ft 207 kts
2026-04-24 12:30 56.02537 -3.24132 3019 ft 220 kts 333°
2026-04-24 12:30 56.03688 -3.25894 3038 ft 220 kts 301°
2026-04-24 12:31 56.04331 -3.28431 3283 ft 230 kts 284°
2026-04-24 12:31 56.04490 -3.31276 3546 ft 233 kts 263°
2026-04-24 12:31 56.04140 -3.34116 3798 ft 235 kts 255°
2026-04-24 12:31 56.03677 -3.36931 3961 ft 236 kts 253°
2026-04-24 12:32 56.03196 -3.39741 4004 ft 236 kts 253°
2026-04-24 12:32 56.02705 -3.42546 4011 ft 237 kts 250°
2026-04-24 12:32 56.02061 -3.45258 4008 ft 237 kts 246°
2026-04-24 12:32 56.01365 -3.47936 4010 ft 237 kts 245°
2026-04-24 12:33 56.00663 -3.50607 4012 ft 238 kts 245°
2026-04-24 12:33 55.99959 -3.53288 3947 ft 239 kts 245°
2026-04-24 12:33 55.99258 -3.55959 3816 ft 237 kts 245°
2026-04-24 12:33 55.98558 -3.58621 3691 ft 237 kts 245°
2026-04-24 12:34 55.97848 -3.61266 3550 ft 236 kts 243°
2026-04-24 12:34 55.97057 -3.63830 3369 ft 236 kts 235°
2026-04-24 12:34 55.95853 -3.65770 3313 ft 233 kts 209°
2026-04-24 12:34 55.94402 -3.66929 3286 ft 228 kts 204°
2026-04-24 12:35 55.92967 -3.68018 3257 ft 220 kts 204°
2026-04-24 12:35 55.91568 -3.69073 3227 ft 218 kts 204°
2026-04-24 12:35 55.90172 -3.70130 3204 ft 218 kts 204°
2026-04-24 12:35 55.88783 -3.71179 3115 ft 213 kts 204°
2026-04-24 12:36 55.87449 -3.72163 3014 ft 201 kts 199°
2026-04-24 12:36 55.86099 -3.72217 3001 ft 199 kts 162°
2026-04-24 12:36 55.84994 -3.70780 2999 ft 201 kts 123°
2026-04-24 12:36 55.84621 -3.68433 3005 ft 201 kts 84°
2026-04-24 12:37 55.85115 -3.66136 3008 ft 201 kts 58°
2026-04-24 12:37 55.85853 -3.64025 3008 ft 201 kts 57°
2026-04-24 12:37 55.86577 -3.61938 3002 ft 195 kts 57°
2026-04-24 12:37 55.87283 -3.59882 2856 ft 196 kts 57°
2026-04-24 12:38 55.88001 -3.57789 2618 ft 201 kts 58°
2026-04-24 12:38 55.88729 -3.55660 2356 ft 201 kts 58°
2026-04-24 12:38 55.89447 -3.53558 2094 ft 195 kts 58°
2026-04-24 12:39 55.91356 -3.47961 1354 ft 160 kts 58°
2026-04-24 12:39 55.91925 -3.46330 1109 ft 150 kts 57°
2026-04-24 12:39 55.92466 -3.44795 934 ft 143 kts 57°
2026-04-24 12:40 55.92967 -3.43294 733 ft 138 kts 59°
2026-04-24 12:40 55.93458 -3.41832 546 ft 137 kts 58°
2026-04-24 12:40 55.93946 -3.40381 363 ft 136 kts 57°
2026-04-24 12:40 55.94428 -3.38952 201 ft 135 kts 58°
2026-04-24 12:41 55.94896 -3.37558 113 ft 115 kts 59°
2026-04-24 12:41 55.95195 -3.36676 113 ft 46 kts 59°
2026-04-24 12:41 55.95254 -3.36421 111 ft 15 kts 124°
2026-04-24 12:41 55.95197 -3.36356 114 ft 7 kts 150°
2026-04-24 12:42 55.95149 -3.36287 116 ft 9 kts 118°
2026-04-24 12:42 55.95125 -3.36171 113 ft 15 kts 107°
2026-04-24 12:42 55.95090 -3.35985 115 ft 17 kts 111°
2026-04-24 12:42 55.95036 -3.35834 113 ft 12 kts 153°
2026-04-24 12:43 55.94959 -3.35862 117 ft 11 kts 174°
2026-04-24 12:43 55.94908 -3.35780 117 ft 10 kts 118°
2026-04-24 12:43 55.94877 -3.35678 115 ft 9 kts 119°
2026-04-24 12:43 55.94839 -3.35643 115 ft 6 kts 199°
2026-04-24 12:44 55.94809 -3.35672 113 ft 4 kts 209°
2026-04-24 12:44 55.94797 -3.35684 114 ft 0 kts 208°